sat.trackr.live / text

‹ back to catalog

STARLINK-33987

NORAD 63873 · 2025-094K

PAYLOAD ACTIVE UNKNOWN

§ Identity

Operator
Country
US
Launch date
2025-05-10
Launch site
AFWTR
Launch vehicle
Mass (kg)
RCS (m²)

Purposes: comms

External: N2YO · Heavens-Above · Gunter

§ Orbital elements

Epoch: 2026-09-20T13:45:19.314144Z

Period
94.09 min
Inclination
70.0008°
Eccentricity
0.0002498
Mean motion
15.30425716 rev/d
Perigee alt
472.8 km
Apogee alt
476.3 km
Semi-major
6,852.7 km
B*
5.5480e-4
RAAN
100.7480°
Arg perigee
269.0460°
Mean anomaly
91.0430°
Rev number
7,645

§ Raw data

STARLINK-339871 63873U 25094K   26263.57314021  .00016275  00000+0  55480-3 0  99942 63873  70.0008 100.7480 0002498 269.0460  91.0430 15.30425716 76457

JSON: /api/v1/satellites/63873 · /tle

For live sub-satellite position, see the globe view (requires WebGL).

§ Visibility from observer

Set your observer location to see the next 7 days of passes ≥ 10°. The values pass through the URL so the page stays shareable.

No JS? Fill the form by hand. The geolocation button needs JavaScript.